Regional Weather Roundup
Issued by NWS

Home | Current Version | Previous Version | Graphics & Text | Print | Product List | Glossary On
Versions: 1 2 3 4 5 6 7 8 9 10 11 12 13 14 15 16 17 18 19 20 21 22 23 24 25 26 27
000
ASUS45 KSLC 240110
RWRUT

UTAH REGIONAL WEATHER ROUNDUP
NATIONAL WEATHER SERVICE SALT LAKE CITY UT
700 PM MDT SAT SEP 23 2017

UTZ001>011-023>025-240200-

NORTHERN UTAH

CITY           SKY/WX    TMP DP  RH WIND       PRES   REMARKS
BRIGHAM CITY   CLOUDY    54  34  47 N7        29.93S
HILL AFB       CLOUDY    47  37  67 E5        29.93S
LOGAN          CLOUDY    53  37  54 N9        29.92S
OGDEN          CLOUDY    51  38  60 NE7       29.92F
SALT LAKE CITY LGT RAIN  50  42  74 N5        29.94R
TOOELE VALLEY  RAIN      48  41  76 N6        29.95S
WENDOVER       CLOUDY    52  29  41 NW18      29.97S
HEBER CITY     CLOUDY    43  36  75 SE3       29.92R
WEST JORDAN    CLOUDY    46  44  96 N3        29.96S

$$

UTZ011>015-024>027-240200-

CENTRAL/NORTHEAST UTAH

CITY           SKY/WX    TMP DP  RH WIND       PRES   REMARKS
PROVO AIRPORT  RAIN      46  40  79 NW15      29.96R
MOAB/CANYONLAN MOCLDY    60  42  51 NE25      29.70F
DELTA          CLOUDY    43  37  81 N6        29.97S
PRICE          MOCLDY    50  32  50 NW15      29.83R
RICHFIELD      CLOUDY    43  39  87 NE1       29.98S
ROOSEVELT      CLEAR     59  34  38 CALM      29.81S
VERNAL         CLOUDY    60  36  40 NE6       29.80S

$$

UTZ013>016-019>022-027-240200-

SOUTHERN UTAH

CITY           SKY/WX    TMP DP  RH WIND       PRES   REMARKS
BRYCE CANYON   MOCLDY    39  33  79 NE14      29.93S WCI  31
CEDAR CITY     LGT RAIN  35  35 100 CALM      29.96R
MILFORD        LGT RAIN  44  38  79 N15       29.94F
ST GEORGE      CLOUDY    58  35  42 NW20G25   29.90R
HANKSVILLE     MOCLDY    61  28  29 NW18G25   29.76R
KANAB          CLOUDY    57  25  28 W9        29.90S
BLANDING         N/A     60  19  20 S10       29.85S

$$

REGIONAL REPORTS     COLORADO/ARIZONA

CITY           SKY/WX    TMP DP  RH WIND       PRES   REMARKS
CRAIG, CO      CLOUDY    51  40  65 NE6       29.88S
GRAND JUNCTION CLOUDY    52  48  86 E6        29.81F
RIFLE, CO      CLOUDY    50  43  77 W23G38    29.87R
MONTROSE, CO   CLOUDY    56  44  64 NW9       29.85R
CORTEZ, CO     PTCLDY    58  46  64 SE8       29.82S
PAGE, AZ       PTCLDY    64  26  23 W16G26    29.78R
GRAND CANYON   MOCLDY    50  26  39 VRB7      29.91R
KINGMAN, AZ    CLEAR     67  24  19 W14       29.85R
FLAGSTAFF, AZ  CLEAR     52  16  24 W12G21    29.92R

$$

REGIONAL REPORTS    NEVADA/IDAHO/WYOMING

CITY           SKY/WX    TMP DP  RH WIND       PRES   REMARKS
LAS VEGAS, NV  PTCLDY    73  19  13 N20       29.82R
ELY, NY        MOCLDY    42  31  64 NW15      30.00R
ELKO, NV       PTCLDY    50  24  36 N8        30.01S
POCATELLO, ID  PTCLDY    52  34  50 W6        29.98F
BURLEY, ID     PTCLDY    49  35  58 W6        29.99S
FORT BRIDGER,    N/A     44  37  76 N5        29.95S
EVANSTON, WY   LGT RAIN  38  36  92 NW5       29.94S FOG     WCI  34
ROCK SPRINGS,  CLOUDY    42  37  82 NE15      29.94S
KEMMERER, WY     N/A     43  34  70 NW12      29.94F

$$




USA.gov is the U.S. government's official web portal to all federal, state and local government web resources and services.